User: anonymous   Login
Location: Fort Wayne
(41.1310°N, 85.1290°W)
Time: 14:47:17
(UTC-04:00)
Language:

COSMOS 2428 - Orbit

View from above orbital plane
View from above orbital plane
View from above satellite
View from above satellite

Ground track
Ground track

The orbit data is extracted from the following two-line orbital elements,

1 31792U 07029A   14297.44634628  .00000374  00000-0  22796-3 0  1164
2 31792 070.9721 278.7253 0011674 286.3155 242.2394 14.12452121377560
Epoch (UTC): 24 October 2014 10:42:44
Eccentricity: 0.0011674
inclination: 70.9721°
perigee height: 842 km
apogee height: 859 km
right ascension of ascending node: 278.7253°
argument of perigee: 286.3155°
revolutions per day: 14.12452121
mean anomaly at epoch: 242.2394°
orbit number at epoch: 37756

The dashed part of the orbit path shows where the satellite is in the earth's shadow,  

DLR